#timestamp,LO_Frequency,Hit,StdDev 
1457377215.8,286046997.0,P
1457377235.7,286047001.0,N
1457377255.5,286047000.5,N
1457377275.3,286046999.9,N
1457377295.2,286047006.0,N
1457377315.9,286047005.4,N
1457377335.7,286047005.3,N
1457377355.5,286047006.8,N
1457377375.4,286047004.7,N
1457377395.2,286047002.2,N
1457377415.0,286047002.1,N
1457377415.9,286047002.1,N
1457377435.8,286047002.6,N
1457377455.6,286046997.3,N
1457377475.4,286046995.7,N
1457377495.3,286047001.2,N
1457377515.1,286047000.7,N
1457377516.0,286047000.7,N
1457377535.8,286047001.4,N
1457377555.7,286047003.0,N
1457377575.5,286047003.8,N
1457377595.3,286047003.8,N
1457377615.2,286047005.7,N
1457377635.9,286047001.6,N
1457377655.7,286047005.6,N
1457377675.5,286047006.6,N
1457377695.4,286047005.0,N
1457377715.2,286047007.6,N
1457377735.0,286047007.1,N
1457377735.9,286047007.1,N
1457377755.8,286047003.2,N
1457377775.6,286047002.7,N
1457377795.4,286047001.2,N
1457377815.3,286047002.6,N
1457377835.1,286047004.0,N
1457377855.8,286047004.4,N
1457377875.7,286047006.5,N
1457377895.5,286047003.5,N
1457377915.3,286047001.3,N
1457377935.2,286047003.2,N
1457377955.9,286047007.3,N
1457377975.7,286047004.7,N
1457377995.6,286047006.2,N
1457378015.4,286047007.3,N
1457378035.2,286047003.4,N
1457378055.1,286047007.2,Y
1457378056.0,286047007.2,P
1457378075.8,286047002.1,N
1457378095.6,286047002.2,N
1457378115.5,286047002.6,N
1457378135.3,286047000.0,N
1457378155.1,286047002.2,N
1457378175.8,286047002.3,N
1457378195.7,286047000.2,N
1457378215.5,286046997.8,N
1457378235.3,286046996.7,N
1457378255.2,286046998.7,N
1457378275.9,286046997.3,N
1457378295.7,286046996.8,N
1457378315.6,286046998.6,N
1457378335.4,286047000.8,N
1457378355.2,286047000.4,N
1457378375.1,286046998.5,N
1457378376.0,286046998.5,N
1457378395.8,286047000.1,N
1457378415.6,286046998.5,N
1457378435.4,286047002.0,N
1457378455.3,286047003.3,N
1457378475.1,286047004.4,N
1457378495.8,286047000.0,N
1457378515.7,286046998.6,N
1457378535.5,286046998.4,N
1457378555.3,286046999.2,N
1457378575.2,286046996.8,N
1457378595.9,286046997.8,N
1457378615.7,286046997.1,N
1457378635.6,286046995.6,N
1457378655.4,286046998.4,N
1457378675.2,286046999.0,N
1457378695.1,286046997.1,N
1457378696.0,286046997.1,N
1457378715.8,286047001.0,N
1457378735.6,286046999.0,N
1457378755.5,286047001.0,N
1457378775.3,286046996.7,N
1457378795.1,286047001.1,N
1457378815.8,286046996.7,N
1457378835.7,286046993.6,Y
1457378855.5,286046995.7,P
1457378875.3,286047001.0,N
1457378895.2,286047003.7,N
1457378915.0,286047002.2,N
1457378915.9,286047002.2,N
1457378935.7,286046997.2,N
1457378955.6,286046997.3,N
1457378975.4,286047001.0,N
1457378995.2,286046998.3,N
1457379015.1,286046996.9,N
1457379016.0,286046996.9,N
1457379035.8,286046995.5,N
1457379055.6,286046999.4,N
1457379075.5,286047003.8,N
1457379095.3,286047001.9,N
1457379115.1,286046998.8,N
1457379135.9,286046997.6,N
1457379155.7,286046998.7,N
1457379175.5,286047000.1,N
1457379195.3,286046998.1,N
1457379215.2,286047000.4,N
1457379235.0,286047002.7,N
1457379235.9,286047002.7,N
1457379255.7,286047004.2,N
1457379275.6,286047005.2,N
1457379295.4,286047003.7,N
1457379315.2,286047002.9,N
1457379335.1,286047004.6,N
1457379336.0,286047004.6,N
1457379355.8,286047006.8,N
1457379375.6,286047007.5,N
1457379395.5,286047007.2,N
1457379415.3,286047004.2,N
1457379435.1,286047004.1,N
1457379455.9,286047005.4,N
1457379475.7,286047001.6,N
1457379495.5,286046998.3,N
1457379515.4,286046996.5,N
1457379535.2,286046999.3,N
1457379555.0,286046998.2,N
1457379555.9,286046998.2,N
1457379575.7,286046998.7,N
1457379595.6,286046998.5,N
1457379615.4,286046999.1,N
1457379635.2,286046998.1,N
1457379655.1,286046999.6,N
1457379656.0,286046999.6,N
1457379675.8,286046997.2,N
1457379695.6,286047001.1,N
1457379715.5,286047002.5,N
1457379735.3,286047000.7,N
1457379755.1,286046996.5,N
1457379775.9,286046998.0,N
1457379795.7,286047000.7,N
1457379815.5,286047000.3,N
1457379835.4,286047002.7,N
1457379855.2,286047000.9,N
1457379875.0,286047002.3,N
1457379875.9,286047002.3,N
1457379895.8,286046998.6,N
1457379915.6,286046999.4,N
1457379935.4,286047000.9,N
1457379955.2,286047004.2,N
1457379975.1,286047006.5,N
1457379976.0,286047006.5,N
1457379995.8,286047004.9,N
1457380015.6,286047005.2,N
1457380035.5,286047004.5,N
1457380055.3,286047002.9,N
1457380075.1,286047003.2,N
1457380095.9,286047007.5,N
1457380115.7,286047007.2,N
1457380135.5,286047008.3,N
1457380155.4,286047006.4,N
1457380175.2,286047007.1,N
1457380195.0,286047004.9,N
1457380195.9,286047004.9,N
1457380215.8,286047005.8,N
1457380235.6,286047004.7,N
1457380255.4,286047005.1,N
1457380275.3,286047005.2,N
1457380295.1,286047004.8,N
1457380296.0,286047004.8,N
1457380315.8,286047004.8,N
1457380335.6,286047003.6,N
1457380355.5,286047001.6,N
1457380375.3,286047005.2,N
1457380395.1,286047004.6,N
1457380415.9,286047005.1,N
1457380435.7,286047007.7,Y
1457380455.5,286047004.6,P
1457380475.4,286047007.0,P
1457380495.2,286047010.3,P
1457380515.0,286047007.5,Y
1457380516.0,286047007.5,P
1457380535.8,286047002.2,P
1457380555.6,286046999.8,N
1457380575.4,286047001.0,N
1457380595.3,286047002.4,N
1457380615.1,286047001.3,N
1457380635.8,286047001.8,N
1457380655.7,286047000.0,N
1457380675.5,286046997.0,N
1457380695.3,286046996.5,N
1457380715.2,286046999.9,N
1457380735.9,286047001.9,N
1457380755.7,286047002.3,N
1457380775.6,286046998.3,N
1457380795.4,286047003.6,N
